TimeCST,TemperatureF,Dew PointF,Humidity,Sea Level PressureIn,VisibilityMPH,Wind Direction,Wind SpeedMPH,Gust SpeedMPH,PrecipitationIn,Events,Conditions,WindDirDegrees,DateUTC
12:52 AM,8.1,5.0,87,30.30,10.0,WNW,5.8,-,N/A,,Clear,290,2012-12-21 06:52:00
1:52 AM,7.0,5.0,92,30.30,10.0,WNW,4.6,-,N/A,,Clear,290,2012-12-21 07:52:00
2:52 AM,7.0,5.0,92,30.32,10.0,WNW,5.8,-,N/A,,Clear,300,2012-12-21 08:52:00
3:52 AM,7.0,5.0,92,30.33,10.0,WNW,8.1,-,N/A,,Clear,300,2012-12-21 09:52:00
4:52 AM,7.0,3.9,87,30.32,10.0,North,3.5,-,N/A,,Clear,350,2012-12-21 10:52:00
5:52 AM,3.9,1.0,88,30.33,10.0,West,5.8,-,N/A,,Clear,280,2012-12-21 11:52:00
6:52 AM,8.1,3.9,83,30.35,10.0,Calm,Calm,-,N/A,,Clear,0,2012-12-21 12:52:00
7:52 AM,3.9,3.0,96,30.37,6.0,Calm,Calm,-,N/A,,Clear,0,2012-12-21 13:52:00
8:52 AM,7.0,6.1,96,30.37,8.0,Calm,Calm,-,N/A,,Clear,0,2012-12-21 14:52:00
9:52 AM,10.9,9.0,92,30.38,9.0,SE,3.5,-,N/A,,Clear,130,2012-12-21 15:52:00
10:52 AM,14.0,9.0,80,30.39,10.0,SE,3.5,-,N/A,,Clear,140,2012-12-21 16:52:00
11:52 AM,16.0,10.0,77,30.37,10.0,ESE,4.6,-,N/A,,Clear,110,2012-12-21 17:52:00
12:52 PM,19.0,12.9,77,30.35,10.0,ESE,5.8,-,N/A,,Clear,120,2012-12-21 18:52:00
1:52 PM,19.9,12.9,74,30.32,10.0,ESE,8.1,-,N/A,,Clear,120,2012-12-21 19:52:00
2:52 PM,19.9,14.0,78,30.31,10.0,ESE,8.1,-,N/A,,Clear,120,2012-12-21 20:52:00
3:52 PM,21.0,14.0,74,30.31,10.0,SE,9.2,-,N/A,,Clear,130,2012-12-21 21:52:00
4:52 PM,19.0,12.9,77,30.30,10.0,SE,9.2,-,N/A,,Clear,130,2012-12-21 22:52:00
5:52 PM,16.0,12.0,84,30.29,10.0,SE,9.2,-,N/A,,Clear,130,2012-12-21 23:52:00
6:52 PM,16.0,12.0,84,30.29,10.0,SSE,6.9,-,N/A,,Clear,160,2012-12-22 00:52:00
7:52 PM,14.0,10.0,84,30.27,10.0,SE,8.1,-,N/A,,Clear,140,2012-12-22 01:52:00
8:52 PM,12.9,9.0,84,30.25,10.0,ESE,9.2,-,N/A,,Clear,120,2012-12-22 02:52:00
9:52 PM,12.9,9.0,84,30.23,10.0,ESE,11.5,-,N/A,,Clear,120,2012-12-22 03:52:00
10:52 PM,12.9,9.0,84,30.22,10.0,SE,10.4,-,N/A,,Clear,130,2012-12-22 04:52:00
11:52 PM,15.1,10.9,84,30.20,10.0,SE,10.4,-,N/A,,Clear,130,2012-12-22 05:52:00